Location: Unspecified
(51.0000°N, 12.0000°E)
Time: 07:09:09
(UTC+01:00)

N. Korean satellite - Pass Details

Date: 27 October 2019
Orbit: 456 x 506 km, 97.2° (Epoch: 17 November)

Event Time Altitude Azimuth Distance (km) Brightness Sun altitude
Rises 05:54:50 0° 17° (NNE) 2,581 10.4 -10.0°
Reaches altitude 10° 05:56:57 10° 23° (NNE) 1,701 9.5 -9.7°
Maximum altitude 06:00:31 49° 99° (E) 652 7.7 -9.1°
Drops below altitude 10° 06:04:07 10° 176° (S) 1,708 9.5 -8.6°
Sets 06:06:14 0° 182° (S) 2,592 10.4 -8.2°
